Weather History for Monterrey Gen Maria, Mexico

Change the Weather History Date:

Sunday, March 24, 2013

  Actual Average Record
Temperature  
Mean Temperature 66 °F -  
Max Temperature 75 °F 80 °F 95 °F (1998)
Min Temperature 55 °F 58 °F 46 °F (2006)
Cooling Degree Days 1    
Growing Degree Days 16 (Base 50)    
Moisture  
Dew Point 28 °F    
Average Humidity 28    
Maximum Humidity 78    
Minimum Humidity 12    
Precipitation  
Precipitation 0.00 in - - ()
Sea Level Pressure  
Sea Level Pressure 29.95 in    
Wind  
Wind Speed 8 mph ()    
Max Wind Speed 23 mph    
Max Gust Speed 44 mph    
Visibility 8.7 miles    
Events      
Averages and records for this station are not official NWS values.
T = Trace of Precipitation, MM = Missing Value Source: Averaged Metar Reports

Daily Weather History Graph

Daily Weather History Graph

Search for Another Location

Airport:

Trip Planner

Search our weather history database for the weather conditions in past years. The results will help you decide how hot, cold, wet, or windy it might be!

Date:

Astronomy

Mar. 24, 2013 Rise Set
Actual Time 6:39 AM CST 6:53 PM CST
Civil Twilight 6:16 AM CST 7:16 PM CST
Nautical Twilight 5:50 AM CST 7:43 PM CST
Astronomical Twilight 5:23 AM CST 8:10 PM CST
Moon 4:35 PM CST (3/24) 4:36 AM CST (3/24)
Length of Visible Light 12h 59m
Length of Day
12h 13m
Waxing Gibbous, 92% of the Moon is Illuminated
Mar 24
Waxing Gibbous
Mar 27
Full
Apr 2
Last Quarter
Apr 10
New
Apr 18
First Quarter

Hourly Weather History & Observations

Time (CST) Temp. Dew Point Humidity Pressure Visibility Wind Dir Wind Speed Gust Speed Precip Events Conditions
12:44 AM 73.4 °F 51.8 °F 47% 29.74 in 15.0 mi East 6.9 mph - N/A   Clear
1:45 AM 71.6 °F 57.2 °F 60% 29.76 in 15.0 mi Calm Calm - N/A   Clear
2:46 AM 69.8 °F 57.2 °F 64% 29.69 in 15.0 mi Calm Calm - N/A   Clear
3:50 AM 68.0 °F 59.0 °F 73% 29.78 in 15.0 mi Calm Calm - N/A   Clear
4:42 AM 66.2 °F 59.0 °F 78% 29.80 in 15.0 mi Calm Calm - N/A   Clear
5:47 AM 64.4 °F 53.6 °F 68% 29.83 in 15.0 mi WNW 5.8 mph - N/A   Clear
6:15 AM 69.8 °F 55.4 °F 60% 29.89 in 5.0 mi NNW 17.3 mph 33.4 mph N/A   Widespread Dust
6:41 AM 68.0 °F 15.8 °F 13% 29.93 in 3.0 mi North 23.0 mph 38.0 mph N/A   Widespread Dust
7:48 AM 66.2 °F 12.2 °F 12% 29.99 in 3.0 mi NNW 20.7 mph 41.4 mph N/A   Widespread Dust
8:52 AM 66.2 °F 23.0 °F 19% 30.02 in 3.0 mi NNW 20.7 mph 41.4 mph N/A   Widespread Dust
9:49 AM 66.2 °F 19.4 °F 17% 30.08 in 3.0 mi NNW 21.9 mph 43.7 mph N/A   Widespread Dust
10:42 AM 68.0 °F 14.0 °F 12% 30.08 in 5.0 mi NNW 20.7 mph 41.4 mph N/A   Mostly Cloudy
11:46 AM 71.6 °F 17.6 °F 13% 30.05 in 5.0 mi NNW 18.4 mph 32.2 mph N/A   Mostly Cloudy
12:46 PM 73.4 °F 17.6 °F 12% 30.04 in 5.0 mi NNW 11.5 mph 23.0 mph N/A   Mostly Cloudy
1:47 PM 73.4 °F 17.6 °F 12% 30.00 in 6.0 mi NW 10.4 mph - N/A   Mostly Cloudy
2:43 PM 75.2 °F 19.4 °F 12% 29.96 in 6.0 mi North 8.1 mph - N/A   Mostly Cloudy
3:42 PM 75.2 °F 19.4 °F 12% 29.94 in 6.0 mi WNW 10.4 mph - N/A   Clear
4:45 PM 73.4 °F 19.4 °F 13% 29.93 in 6.0 mi ESE 8.1 mph - N/A   Clear
5:40 PM 71.6 °F 17.6 °F 13% 29.95 in 7.0 mi ESE 9.2 mph - N/A   Clear
6:44 PM 66.2 °F 14.0 °F 13% 29.98 in 8.0 mi East 9.2 mph - N/A   Clear
7:41 PM 62.6 °F 12.2 °F 14% 30.01 in 10.0 mi ESE 8.1 mph - N/A   Clear
8:44 PM 60.8 °F 14.0 °F 16% 30.03 in 10.0 mi SE 4.6 mph - N/A   Clear
9:40 PM 59.0 °F 14.0 °F 17% 30.05 in 12.0 mi SSE 8.1 mph - N/A   Clear
10:40 PM 57.2 °F 14.0 °F 18% 30.06 in 12.0 mi SSE 8.1 mph - N/A   Clear
11:45 PM 55.4 °F 15.8 °F 21% 30.06 in 12.0 mi SSE 6.9 mph - N/A   Clear